Location: *
(51.0333°S, 178.4667°E)
Time: 14:01:18
(UTC+00:00)

H-2A R/B - Pass Details

Date: 15 November 2019
Orbit: 733 x 837 km, 98.3° (Epoch: 05 December)

Event Time Altitude Azimuth Distance (km) Brightness Sun altitude
Rises 08:26:02 0° 161° (SSE) 3,312 5.6 -7.4°
Reaches altitude 10° 08:28:27 10° 155° (SSE) 2,393 4.8 -7.6°
Maximum altitude 08:33:32 45° 82° (E) 1,112 2.5 -8.2°
Drops below altitude 10° 08:38:40 10° 10° (N) 2,426 4.1 -8.8°
Enters shadow 08:40:29 - 4° (N) 3,110 4.7 -9.0°
